OAS190 SKBO-TTPP

Flight info

Callsign OAS190
Flight time 2h 3m
Altitude 35001
Route OSUSU4R AKROB W20 MAVDA/N0453F350 UW20 AUC DCT SFD DCT SOM DCT MUN/N0377F230 A562 POS
Aircraft A320/M-SDE3FGHIRWY/LB1

Departure

Time 2026-05-04 15:38
Airport El Dorado International Airport (SKBO)

Arrival

Time 2026-05-04 17:41
Airport Piarco International Airport (TTPP)
Time Latitude Longitude Altitude Speed Heading
2026-05-04 15:16 4.70018 -74.14180 8366 ft 0 kts 209°
2026-05-04 15:26 4.70025 -74.14176 8366 ft 4 kts 209°
2026-05-04 15:26 4.70072 -74.14150 8366 ft 4 kts 205°
2026-05-04 15:27 4.70097 -74.14144 8366 ft 4 kts 165°
2026-05-04 15:27 4.70125 -74.14164 8366 ft 4 kts 126°
2026-05-04 15:28 4.70113 -74.14149 8366 ft 4 kts 127°
2026-05-04 15:28 4.70104 -74.14137 8366 ft 0 kts 127°
2026-05-04 15:30 4.70097 -74.14127 8366 ft 2 kts 127°
2026-05-04 15:31 4.70064 -74.14084 8366 ft 5 kts 128°
2026-05-04 15:31 4.70054 -74.14047 8366 ft 6 kts 89°
2026-05-04 15:32 4.70168 -74.13987 8365 ft 8 kts 313°
2026-05-04 15:32 4.70248 -74.14091 8366 ft 11 kts 308°
2026-05-04 15:33 4.70347 -74.14223 8366 ft 13 kts 307°
2026-05-04 15:34 4.70524 -74.14450 8366 ft 15 kts 306°
2026-05-04 15:34 4.70586 -74.14538 8366 ft 15 kts 306°
2026-05-04 15:34 4.70710 -74.14702 8366 ft 14 kts 307°
2026-05-04 15:35 4.70847 -74.14881 8366 ft 18 kts 308°
2026-05-04 15:35 4.70922 -74.14981 8366 ft 18 kts 307°
2026-05-04 15:35 4.71000 -74.15083 8366 ft 18 kts 306°
2026-05-04 15:36 4.71187 -74.15219 8366 ft 17 kts 355°
2026-05-04 15:36 4.71302 -74.15223 8366 ft 15 kts 16°
2026-05-04 15:36 4.71307 -74.15164 8365 ft 0 kts 129°
2026-05-04 15:37 4.71303 -74.15159 8365 ft 4 kts 129°
2026-05-04 15:37 4.71168 -74.14978 8364 ft 66 kts 127°
2026-05-04 15:37 4.70764 -74.14439 8367 ft 125 kts 127°
2026-05-04 15:37 4.70138 -74.13609 8367 ft 174 kts 127°
2026-05-04 15:38 4.69626 -74.12925 8651 ft 179 kts 126°
2026-05-04 15:38 4.68910 -74.11922 9460 ft 177 kts 115°
2026-05-04 15:38 4.68777 -74.10727 10128 ft 177 kts 75°
2026-05-04 15:38 4.69768 -74.09450 10846 ft 184 kts 31°
2026-05-04 15:39 4.70582 -74.09131 11054 ft 187 kts 22°
2026-05-04 15:39 4.71828 -74.08728 11379 ft 188 kts 22°
2026-05-04 15:39 4.74914 -74.07719 11715 ft 216 kts 21°
2026-05-04 15:40 4.75896 -74.07395 11809 ft 224 kts 21°
2026-05-04 15:40 4.77430 -74.06885 11933 ft 241 kts 21°
2026-05-04 15:40 4.79045 -74.06348 12264 ft 249 kts 21°
2026-05-04 15:40 4.80718 -74.05789 12417 ft 267 kts 21°
2026-05-04 15:41 4.82523 -74.05182 12714 ft 278 kts 21°
2026-05-04 15:41 4.84381 -74.04560 13187 ft 283 kts 21°
2026-05-04 15:41 4.86293 -74.03919 13478 ft 299 kts 21°
2026-05-04 15:41 4.88305 -74.03240 13880 ft 309 kts 21°
2026-05-04 15:42 4.90360 -74.02544 14419 ft 314 kts 21°
2026-05-04 15:42 4.92440 -74.01839 14958 ft 316 kts 21°
2026-05-04 15:42 4.94531 -74.01131 15527 ft 318 kts 21°
2026-05-04 15:42 4.96631 -74.00422 16087 ft 320 kts 21°
2026-05-04 15:43 4.98752 -73.99704 16643 ft 322 kts 21°
2026-05-04 15:43 5.00883 -73.98979 16950 ft 324 kts 21°
2026-05-04 15:43 5.03030 -73.98294 17004 ft 324 kts 18°
2026-05-04 15:43 5.05206 -73.97707 17011 ft 324 kts 17°
2026-05-04 15:44 5.07395 -73.97178 17006 ft 324 kts 16°
2026-05-04 15:44 5.09590 -73.96667 16993 ft 324 kts 15°
2026-05-04 15:44 5.11786 -73.96154 16984 ft 324 kts 16°
2026-05-04 15:44 5.13979 -73.95631 16984 ft 324 kts 17°
2026-05-04 15:45 5.16172 -73.95098 16975 ft 324 kts 17°
2026-05-04 15:45 5.18359 -73.94557 16972 ft 324 kts 17°
2026-05-04 15:45 5.20555 -73.94011 16963 ft 324 kts 17°
2026-05-04 15:45 5.22753 -73.93462 17116 ft 326 kts 17°
2026-05-04 15:46 5.24839 -73.92608 17579 ft 322 kts 40°
2026-05-04 15:46 5.26261 -73.90958 18066 ft 319 kts 63°
2026-05-04 15:46 5.27124 -73.88851 18205 ft 333 kts 75°
2026-05-04 15:46 5.27659 -73.86543 18372 ft 345 kts 80°
2026-05-04 15:47 5.28073 -73.84126 18554 ft 359 kts 81°
2026-05-04 15:47 5.28502 -73.81619 18718 ft 371 kts 80°
2026-05-04 15:47 5.28994 -73.79056 19026 ft 377 kts 78°
2026-05-04 15:47 5.29558 -73.76479 19416 ft 380 kts 77°
2026-05-04 15:48 5.30182 -73.73888 19840 ft 383 kts 76°
2026-05-04 15:48 5.30841 -73.71289 20252 ft 386 kts 76°
2026-05-04 15:48 5.32195 -73.66036 21056 ft 392 kts 76°
2026-05-04 15:49 5.32871 -73.63380 21454 ft 394 kts 76°
2026-05-04 15:49 5.33546 -73.60703 21861 ft 397 kts 76°
2026-05-04 15:49 5.34218 -73.58011 22241 ft 400 kts 76°
2026-05-04 15:49 5.34893 -73.55300 22621 ft 402 kts 75°
2026-05-04 15:50 5.35576 -73.52567 23012 ft 405 kts 75°
2026-05-04 15:50 5.36261 -73.49820 23383 ft 407 kts 75°
2026-05-04 15:50 5.36946 -73.47055 23736 ft 410 kts 75°
2026-05-04 15:50 5.37668 -73.44277 24042 ft 412 kts 71°
2026-05-04 15:51 5.38782 -73.41622 24314 ft 415 kts 62°
2026-05-04 15:51 5.40311 -73.39162 24592 ft 417 kts 57°
2026-05-04 15:51 5.41904 -73.36717 24862 ft 420 kts 57°
2026-05-04 15:51 5.43502 -73.34254 25134 ft 422 kts 58°
2026-05-04 15:52 5.45104 -73.31775 25387 ft 424 kts 58°
2026-05-04 15:52 5.46710 -73.29284 25653 ft 426 kts 58°
2026-05-04 15:52 5.48325 -73.26778 25913 ft 428 kts 58°
2026-05-04 15:52 5.49950 -73.24263 26154 ft 430 kts 58°
2026-05-04 15:53 5.51584 -73.21739 26403 ft 433 kts 58°
2026-05-04 15:53 5.53225 -73.19201 26651 ft 435 kts 58°
2026-05-04 15:53 5.54875 -73.16647 26890 ft 437 kts 58°
2026-05-04 15:53 5.56530 -73.14085 27124 ft 439 kts 58°
2026-05-04 15:54 5.58195 -73.11511 27357 ft 440 kts 58°
2026-05-04 15:54 5.59865 -73.08928 27585 ft 442 kts 58°
2026-05-04 15:54 5.61538 -73.06337 27826 ft 444 kts 58°
2026-05-04 15:54 5.63220 -73.03728 28059 ft 446 kts 58°
2026-05-04 15:55 5.64911 -73.01101 28291 ft 448 kts 58°
2026-05-04 15:55 5.66604 -72.98470 28499 ft 450 kts 58°
2026-05-04 15:55 5.68310 -72.95819 28716 ft 452 kts 58°
2026-05-04 15:55 5.69996 -72.93197 28903 ft 454 kts 58°
2026-05-04 15:56 5.71730 -72.90491 29095 ft 456 kts 59°
2026-05-04 15:56 5.73448 -72.87801 29280 ft 458 kts 58°
2026-05-04 15:56 5.75172 -72.85106 29473 ft 460 kts 59°
2026-05-04 15:56 5.76910 -72.82395 29640 ft 462 kts 59°
2026-05-04 15:57 5.78656 -72.79680 29807 ft 464 kts 59°
2026-05-04 15:57 5.80410 -72.76952 29978 ft 466 kts 59°
2026-05-04 15:57 5.82168 -72.74210 30146 ft 467 kts 59°
2026-05-04 15:57 5.83908 -72.71499 30304 ft 469 kts 59°
2026-05-04 15:58 5.85677 -72.68741 30454 ft 470 kts 59°
2026-05-04 15:58 5.87448 -72.65973 30601 ft 472 kts 59°
2026-05-04 15:58 5.89225 -72.63198 30756 ft 472 kts 59°
2026-05-04 15:58 5.90996 -72.60426 30979 ft 471 kts 58°
2026-05-04 15:59 5.92764 -72.57655 31191 ft 471 kts 59°
2026-05-04 15:59 5.94529 -72.54891 31418 ft 470 kts 58°
2026-05-04 15:59 5.96296 -72.52131 31623 ft 470 kts 58°
2026-05-04 15:59 5.98063 -72.49376 31833 ft 469 kts 58°
2026-05-04 16:00 5.99834 -72.46620 32045 ft 469 kts 58°
2026-05-04 16:00 6.01598 -72.43868 32259 ft 468 kts 58°
2026-05-04 16:00 6.03359 -72.41115 32477 ft 468 kts 58°
2026-05-04 16:00 6.05115 -72.38366 32691 ft 468 kts 58°
2026-05-04 16:01 6.06873 -72.35616 32886 ft 468 kts 58°
2026-05-04 16:01 6.08630 -72.32866 33077 ft 468 kts 58°
2026-05-04 16:01 6.10387 -72.30115 33289 ft 468 kts 58°
2026-05-04 16:01 6.12140 -72.27363 33476 ft 468 kts 58°
2026-05-04 16:02 6.13895 -72.24612 33697 ft 468 kts 58°
2026-05-04 16:02 6.15649 -72.21861 33900 ft 467 kts 59°
2026-05-04 16:02 6.19160 -72.16361 34319 ft 467 kts 58°
2026-05-04 16:03 6.20911 -72.13615 34515 ft 467 kts 58°
2026-05-04 16:03 6.22662 -72.10873 34710 ft 466 kts 58°
2026-05-04 16:03 6.24415 -72.08135 34912 ft 465 kts 58°
2026-05-04 16:03 6.26164 -72.05404 35072 ft 465 kts 58°
2026-05-04 16:04 6.27915 -72.02667 35121 ft 464 kts 58°
2026-05-04 16:04 6.33126 -71.94503 35087 ft 462 kts 58°
2026-05-04 16:05 6.36592 -71.89062 35067 ft 462 kts 58°
2026-05-04 16:06 6.41785 -71.80920 35057 ft 461 kts 58°
2026-05-04 16:07 6.48631 -71.70018 35064 ft 461 kts 60°
2026-05-04 16:08 6.55213 -71.58954 35033 ft 461 kts 60°
2026-05-04 16:09 6.63505 -71.45205 35012 ft 462 kts 59°
2026-05-04 16:10 6.70157 -71.34153 35002 ft 462 kts 59°
2026-05-04 16:11 6.76810 -71.23085 35000 ft 462 kts 59°
2026-05-04 16:12 6.86809 -71.06461 35001 ft 463 kts 59°
2026-05-04 16:13 6.93486 -70.95360 34996 ft 464 kts 59°
2026-05-04 16:14 7.00167 -70.84208 34999 ft 466 kts 59°
2026-05-04 16:16 7.07599 -70.69860 35003 ft 464 kts 76°
2026-05-04 16:17 7.11542 -70.54085 34998 ft 465 kts 76°
2026-05-04 16:18 7.14724 -70.41442 34997 ft 466 kts 76°
2026-05-04 16:19 7.18694 -70.25617 35001 ft 466 kts 76°
2026-05-04 16:20 7.22654 -70.09782 35007 ft 466 kts 77°
2026-05-04 16:22 7.26609 -69.93957 35002 ft 466 kts 77°
2026-05-04 16:23 7.31355 -69.74958 35004 ft 466 kts 77°
2026-05-04 16:25 7.36088 -69.55941 35006 ft 467 kts 77°
2026-05-04 16:26 7.41244 -69.35175 35009 ft 467 kts 77°
2026-05-04 16:28 7.45192 -69.19303 35010 ft 467 kts 77°
2026-05-04 16:29 7.50698 -68.97054 35003 ft 467 kts 77°
2026-05-04 16:31 7.54627 -68.81145 35003 ft 468 kts 76°
2026-05-04 16:32 7.59337 -68.62062 35000 ft 467 kts 77°
2026-05-04 16:33 7.62469 -68.49353 34988 ft 467 kts 77°
2026-05-04 16:34 7.64816 -68.39827 34979 ft 467 kts 77°
2026-05-04 16:35 7.69493 -68.20757 34976 ft 468 kts 77°
2026-05-04 16:36 7.71846 -68.11190 34968 ft 470 kts 77°
2026-05-04 16:37 7.74183 -68.01631 34964 ft 471 kts 77°
2026-05-04 16:38 7.77333 -67.88806 34960 ft 472 kts 77°
2026-05-04 16:39 7.81259 -67.72735 34956 ft 473 kts 77°
2026-05-04 16:40 7.84395 -67.59845 34973 ft 474 kts 77°
2026-05-04 16:41 7.88339 -67.43716 34968 ft 474 kts 76°
2026-05-04 16:43 7.93493 -67.27916 34964 ft 475 kts 71°
2026-05-04 16:43 7.96639 -67.18432 34966 ft 475 kts 72°
2026-05-04 16:45 8.02816 -66.99420 34960 ft 475 kts 72°
2026-05-04 16:46 8.07975 -66.83582 34958 ft 475 kts 72°
2026-05-04 16:47 8.12105 -66.70901 34955 ft 476 kts 71°
2026-05-04 16:48 8.16230 -66.58200 34953 ft 476 kts 72°
2026-05-04 16:49 8.20365 -66.45485 34963 ft 477 kts 71°
2026-05-04 16:50 8.24491 -66.32763 34967 ft 477 kts 72°
2026-05-04 16:51 8.27580 -66.23227 34959 ft 476 kts 71°
2026-05-04 16:52 8.31695 -66.10512 34965 ft 476 kts 71°
2026-05-04 16:53 8.34786 -66.00976 34972 ft 477 kts 71°
2026-05-04 16:54 8.38879 -65.88294 34972 ft 477 kts 71°
2026-05-04 16:55 8.45039 -65.69204 34980 ft 477 kts 71°
2026-05-04 16:56 8.50154 -65.53290 34981 ft 476 kts 71°
2026-05-04 16:57 8.53226 -65.43744 34980 ft 476 kts 71°
2026-05-04 16:58 8.57313 -65.31024 34980 ft 476 kts 71°
2026-05-04 17:00 8.63432 -65.11952 34978 ft 475 kts 71°
2026-05-04 17:01 8.68518 -64.96078 34980 ft 475 kts 71°
2026-05-04 17:02 8.72582 -64.83372 34973 ft 475 kts 71°
2026-05-04 17:03 8.75630 -64.73845 34984 ft 475 kts 71°
2026-05-04 17:03 8.78662 -64.64328 34975 ft 474 kts 71°
2026-05-04 17:04 8.82695 -64.51675 34976 ft 474 kts 71°
2026-05-04 17:05 8.86737 -64.38978 34982 ft 474 kts 71°
2026-05-04 17:06 8.89763 -64.29459 34993 ft 474 kts 71°
2026-05-04 17:07 8.92468 -64.20960 34994 ft 474 kts 71°
2026-05-04 17:07 8.95628 -64.13970 34993 ft 470 kts 53°
2026-05-04 17:08 9.01746 -64.06261 34996 ft 468 kts 49°
2026-05-04 17:09 9.05844 -64.01139 34993 ft 468 kts 49°
2026-05-04 17:09 9.09940 -63.96020 34991 ft 468 kts 49°
2026-05-04 17:10 9.20169 -63.83241 34988 ft 467 kts 49°
2026-05-04 17:11 9.24253 -63.78132 34980 ft 467 kts 49°
2026-05-04 17:12 9.30364 -63.70501 34987 ft 467 kts 49°
2026-05-04 17:13 9.39892 -63.58571 34985 ft 467 kts 49°
2026-05-04 17:14 9.48068 -63.48332 34991 ft 467 kts 49°
2026-05-04 17:15 9.54181 -63.40642 34989 ft 467 kts 49°
2026-05-04 17:16 9.62349 -63.30400 34803 ft 467 kts 49°
2026-05-04 17:16 9.68472 -63.22695 34124 ft 469 kts 49°
2026-05-04 17:17 9.70387 -63.20291 33912 ft 470 kts 49°
2026-05-04 17:17 9.75750 -63.11966 33150 ft 476 kts 65°
2026-05-04 17:18 9.77018 -63.08872 32898 ft 475 kts 65°
2026-05-04 17:18 9.79556 -63.02717 32412 ft 471 kts 65°
2026-05-04 17:19 9.82080 -62.96612 31928 ft 467 kts 65°
2026-05-04 17:19 9.84579 -62.90559 31456 ft 464 kts 65°
2026-05-04 17:20 9.87048 -62.84584 30987 ft 460 kts 65°
2026-05-04 17:20 9.89507 -62.78638 30191 ft 455 kts 65°
2026-05-04 17:20 9.90728 -62.75682 29540 ft 453 kts 65°
2026-05-04 17:21 9.93139 -62.69830 28380 ft 446 kts 65°
2026-05-04 17:21 9.95512 -62.64054 27244 ft 441 kts 65°
2026-05-04 17:22 9.96689 -62.61198 26693 ft 438 kts 65°
2026-05-04 17:22 9.97859 -62.58358 26148 ft 435 kts 65°
2026-05-04 17:23 10.01318 -62.49957 24585 ft 426 kts 66°
2026-05-04 17:23 10.02457 -62.47197 24079 ft 423 kts 66°
2026-05-04 17:23 10.04716 -62.41717 22989 ft 418 kts 66°
2026-05-04 17:24 10.05830 -62.39013 22507 ft 413 kts 67°
2026-05-04 17:24 10.09066 -62.31115 21146 ft 393 kts 68°
2026-05-04 17:25 10.10105 -62.28580 20450 ft 383 kts 68°
2026-05-04 17:25 10.12077 -62.23782 19499 ft 354 kts 68°
2026-05-04 17:26 10.13904 -62.19334 18598 ft 330 kts 68°
2026-05-04 17:26 10.16451 -62.13106 17298 ft 315 kts 69°
2026-05-04 17:27 10.18128 -62.09014 16486 ft 314 kts 69°
2026-05-04 17:27 10.19802 -62.04927 15670 ft 313 kts 69°
2026-05-04 17:28 10.21490 -62.00851 14858 ft 314 kts 65°
2026-05-04 17:29 10.25740 -61.95764 13591 ft 319 kts 47°
2026-05-04 17:29 10.30497 -61.91067 12281 ft 316 kts 47°
2026-05-04 17:30 10.35206 -61.86407 10968 ft 314 kts 47°
2026-05-04 17:31 10.38330 -61.83319 10223 ft 308 kts 47°
2026-05-04 17:31 10.42675 -61.79032 9533 ft 282 kts 47°
2026-05-04 17:32 10.45483 -61.76243 8932 ft 281 kts 47°
2026-05-04 17:33 10.49660 -61.72095 7826 ft 278 kts 46°
2026-05-04 17:33 10.51042 -61.70727 7466 ft 277 kts 46°
2026-05-04 17:34 10.55168 -61.66655 6369 ft 274 kts 46°
2026-05-04 17:34 10.56532 -61.65306 5993 ft 271 kts 46°
2026-05-04 17:35 10.59405 -61.61037 4999 ft 227 kts 84°
2026-05-04 17:35 10.59454 -61.57962 4376 ft 207 kts 91°
2026-05-04 17:35 10.59459 -61.56543 4139 ft 194 kts 91°
2026-05-04 17:36 10.59464 -61.55197 3866 ft 186 kts 90°
2026-05-04 17:36 10.59469 -61.53928 3620 ft 174 kts 90°
2026-05-04 17:36 10.59472 -61.52740 3394 ft 163 kts 90°
2026-05-04 17:36 10.59476 -61.51620 3185 ft 154 kts 91°
2026-05-04 17:37 10.59480 -61.50548 2977 ft 151 kts 90°
2026-05-04 17:37 10.59484 -61.49484 2790 ft 150 kts 91°
2026-05-04 17:37 10.59488 -61.48438 2593 ft 147 kts 90°
2026-05-04 17:37 10.59492 -61.47395 2402 ft 148 kts 91°
2026-05-04 17:38 10.59495 -61.46345 2201 ft 149 kts 90°
2026-05-04 17:38 10.59498 -61.45299 2015 ft 149 kts 91°
2026-05-04 17:38 10.59501 -61.44256 1807 ft 150 kts 88°
2026-05-04 17:38 10.59505 -61.43187 1607 ft 147 kts 88°
2026-05-04 17:39 10.59512 -61.41090 1216 ft 147 kts 90°
2026-05-04 17:39 10.59515 -61.40056 1013 ft 145 kts 91°
2026-05-04 17:39 10.59515 -61.39034 784 ft 144 kts 89°
2026-05-04 17:40 10.59520 -61.38021 614 ft 145 kts 91°
2026-05-04 17:40 10.59532 -61.37014 390 ft 146 kts 91°
2026-05-04 17:40 10.59529 -61.35996 220 ft 147 kts 91°
2026-05-04 17:40 10.59537 -61.34973 34 ft 140 kts 91°
2026-05-04 17:41 10.59536 -61.34134 16 ft 92 kts 89°
2026-05-04 17:41 10.59538 -61.33660 16 ft 42 kts 89°
2026-05-04 17:41 10.59601 -61.33494 16 ft 16 kts 37°
2026-05-04 17:41 10.59695 -61.33475 17 ft 13 kts 307°
2026-05-04 17:42 10.59710 -61.33559 17 ft 12 kts 271°
2026-05-04 17:42 10.59707 -61.33636 17 ft 10 kts 268°
2026-05-04 17:42 10.59707 -61.33705 17 ft 9 kts 271°
2026-05-04 17:42 10.59736 -61.33745 17 ft 7 kts
2026-05-04 17:43 10.59778 -61.33742 17 ft 6 kts
2026-05-04 17:43 10.59814 -61.33741 17 ft 5 kts
2026-05-04 17:43 10.59844 -61.33740 17 ft 4 kts
2026-05-04 17:43 10.59880 -61.33740 17 ft 9 kts
2026-05-04 17:44 10.59911 -61.33751 17 ft 5 kts 311°
2026-05-04 17:44 10.59943 -61.33799 17 ft 10 kts 307°
2026-05-04 17:44 10.59962 -61.33823 17 ft 1 kts 309°
2026-05-04 17:44 10.59964 -61.33825 17 ft 0 kts 309°